If you wish to contribute or participate in the discussions about articles you are invited to join SKYbrary as a registered user

 Actions

Doha International Airport

From SKYbrary Wiki

OTBD
Airport
ICAO: OTBD – IATA: DOH
Summary
Name Doha International Airport
Region Middle East
Territory Qatar QA.gif
Location Doha, Qatar
Serving Doha
Elevation 10.668 m
35 ft
35 ft10.668 m
Coordinates 25° 15' 40.00" N, 51° 33' 54.00" E
Runways
Designator Length Width Surface ROPS
15/33 4572 m15,000 ft
46 m150.919 ft
ASP yes/yes


METAR
Observation OTBD 061630Z AUTO 33015KT CAVOK 39/12 Q1000 NOSIG
Station Doha International Airport
Date/Time 06 June 2020 16:30:00
Wind direction 330°
Wind speed 15 kts
Lowest cloud amount clouds and visibility OK
Temperature 39°C
Dew point 12°C
Humidity 20%
QNH 1000 hPa
Weather condition n/a

Doha International Airport is an airport in Doha, Qatar. It was Qatar's commercial international airport until Hamad International Airport opened on 30 April 2014. While all scheduled commercial traffic ceased, the airport site and existing runway is still used.

Climatology

Hot Desert Climate (Köppen climate classification BWh)

Maps

Terrain

Loading map...

Airport Layout

Loading map...


Accidents & Serious Incidents at or in vicinity of OTBD

None on SKYbrary